Location: Casa Rossa
(45.2389°N, 12.2056°E)
Time: 23:53:43
(UTC+00:00)

CZ-2D R/B - Pass Details

Date: 14 July 2020
Orbit: 792 x 844 km, 98.7° (Epoch: 14 August)

Event Time Altitude Azimuth Distance (km) Brightness Sun altitude
Rises 00:39:06 0° 16° (NNE) 3,348 6.9 -20.6°
Reaches altitude 10° 00:41:28 10° 20° (NNE) 2,420 5.8 -20.4°
Maximum altitude 00:46:48 66° 102° (ESE) 903 2.3 -20.1°
Enters shadow 00:49:08 34° 173° (S) 1,340 2.8 -19.9°
